| time (UTC) | temp F | wind direction | speed knots | gust knots | rain 1hr in | rain 24hr in | rain mn in | humidity % | barometer mb |
| 20260504081720 | 47 | 18 | 0.0 | 0.0 | 0.00 | 0.00 | 0.00 | 70 | 1016.5 |
| 20260504081216 | 47 | 18 | 0.0 | 0.0 | 0.00 | 0.00 | 0.00 | 69 | 1016.8 |
| 20260504080712 | 46 | 29 | 0.0 | 0.0 | 0.00 | 0.00 | 0.00 | 70 | 1016.5 |
| 20260504080209 | 46 | 55 | 0.0 | 0.0 | 0.00 | 0.00 | 0.00 | 70 | 1016.6 |
| 20260504070137 | 47 | 99 | 0.0 | 0.0 | 0.00 | 0.00 | 0.00 | 65 | 1016.7 |
| 20260504050525 | 44 | 86 | 0.0 | 0.0 | 0.00 | 0.00 | 0.00 | 71 | 1016.6 |
| 20260504050022 | 44 | 86 | 0.0 | 0.0 | 0.00 | 0.00 | 0.00 | 70 | 1016.7 |
| 20260504045519 | 44 | 86 | 0.0 | 0.0 | 0.00 | 0.00 | 0.00 | 69 | 1016.7 |
| 20260504045014 | 44 | 83 | 0.0 | 0.0 | 0.00 | 0.00 | 0.00 | 69 | 1016.8 |
| 20260504044512 | 44 | 83 | 0.0 | 0.0 | 0.00 | 0.00 | 0.00 | 68 | 1016.7 |
| 20260504044009 | 44 | 86 | 0.0 | 0.0 | 0.00 | 0.00 | 0.00 | 69 | 1016.8 |
| 20260504043506 | 44 | 86 | 0.0 | 0.0 | 0.00 | 0.00 | 0.00 | 70 | 1017.0 |
| 20260504043004 | 44 | 86 | 0.0 | 0.0 | 0.00 | 0.00 | 0.00 | 68 | 1017.0 |
| 20260504042500 | 44 | 116 | 0.0 | 0.0 | 0.00 | 0.00 | 0.00 | 68 | 1016.7 |
| 20260504041957 | 44 | 114 | 0.0 | 0.0 | 0.00 | 0.00 | 0.00 | 68 | 1016.8 |
| 20260504041453 | 43 | 89 | 0.0 | 0.0 | 0.00 | 0.00 | 0.00 | 69 | 1016.7 |
| 20260504040949 | 43 | 83 | 0.0 | 0.0 | 0.00 | 0.00 | 0.00 | 71 | 1016.8 |
| 20260504040447 | 43 | 83 | 0.0 | 0.0 | 0.00 | 0.00 | 0.00 | 73 | 1016.8 |
| 20260504035943 | 42 | 74 | 0.0 | 0.0 | 0.00 | 0.00 | 0.00 | 76 | 1016.7 |
| 20260504035441 | 42 | 79 | 0.0 | 0.0 | 0.00 | 0.00 | 0.00 | 77 | 1016.8 |
| 20260504034937 | 42 | 113 | 0.0 | 0.0 | 0.00 | 0.00 | 0.00 | 77 | 1016.7 |
| 20260504034434 | 42 | 31 | 0.0 | 0.0 | 0.00 | 0.00 | 0.00 | 78 | 1016.6 |
| 20260504033931 | 42 | 40 | 0.0 | 0.0 | 0.00 | 0.00 | 0.00 | 79 | 1016.5 |
| 20260504033429 | 42 | 55 | 0.0 | 0.0 | 0.00 | 0.00 | 0.00 | 80 | 1016.4 |
| 20260504032926 | 42 | 59 | 0.0 | 0.0 | 0.00 | 0.00 | 0.00 | 80 | 1016.5 |
| 20260504032423 | 42 | 68 | 0.0 | 0.0 | 0.00 | 0.00 | 0.00 | 78 | 1016.4 |
| 20260504031919 | 42 | 68 | 0.0 | 0.0 | 0.00 | 0.00 | 0.00 | 78 | 1016.4 |
| 20260504031417 | 42 | 69 | 0.0 | 0.0 | 0.00 | 0.00 | 0.00 | 78 | 1016.4 |
| 20260504030913 | 42 | 82 | 0.0 | 0.0 | 0.00 | 0.00 | 0.00 | 77 | 1016.3 |
| 20260504030410 | 42 | 80 | 0.0 | 0.0 | 0.00 | 0.00 | 0.00 | 77 | 1016.1 |
| 20260504025906 | 43 | 11 | 0.0 | 0.9 | 0.00 | 0.00 | 0.00 | 77 | 1016.1 |
| 20260504025403 | 42 | 23 | 0.0 | 0.0 | 0.00 | 0.00 | 0.00 | 77 | 1016.3 |
| 20260504024900 | 43 | 75 | 0.0 | 0.0 | 0.00 | 0.00 | 0.00 | 77 | 1016.2 |
| 20260504024356 | 43 | 97 | 0.0 | 0.0 | 0.00 | 0.00 | 0.00 | 76 | 1016.2 |
| 20260504023854 | 43 | 46 | 0.0 | 0.0 | 0.00 | 0.00 | 0.00 | 76 | 1016.3 |
| 20260504023350 | 43 | 48 | 0.0 | 0.0 | 0.00 | 0.00 | 0.00 | 75 | 1016.3 |
| 20260504022845 | 43 | 51 | 0.0 | 0.0 | 0.00 | 0.00 | 0.00 | 74 | 1016.2 |
| 20260504022343 | 43 | 51 | 0.0 | 0.0 | 0.00 | 0.00 | 0.00 | 73 | 1016.2 |
| 20260504021839 | 44 | 51 | 0.0 | 0.0 | 0.00 | 0.00 | 0.00 | 73 | 1016.1 |
| 20260504021337 | 44 | 58 | 0.0 | 0.0 | 0.00 | 0.00 | 0.00 | 73 | 1016.3 |
| 20260504020833 | 44 | 60 | 0.0 | 0.0 | 0.00 | 0.00 | 0.00 | 72 | 1016.3 |
| 20260504020330 | 44 | 61 | 0.0 | 0.0 | 0.00 | 0.00 | 0.00 | 70 | 1016.1 |
| 20260504015826 | 44 | 61 | 0.0 | 0.0 | 0.00 | 0.00 | 0.00 | 70 | 1016.2 |
| 20260504015322 | 45 | 47 | 0.0 | 0.0 | 0.00 | 0.00 | 0.00 | 70 | 1016.1 |
| 20260504014819 | 45 | 47 | 0.0 | 0.0 | 0.00 | 0.00 | 0.00 | 69 | 1016.1 |
| 20260504014315 | 45 | 47 | 0.0 | 0.0 | 0.00 | 0.00 | 0.00 | 68 | 1016.2 |
| 20260504013813 | 45 | 48 | 0.0 | 0.0 | 0.00 | 0.00 | 0.00 | 68 | 1016.1 |
| 20260504013310 | 45 | 56 | 0.0 | 0.0 | 0.00 | 0.00 | 0.00 | 66 | 1016.0 |
| 20260504012807 | 46 | 57 | 0.0 | 0.0 | 0.00 | 0.00 | 0.00 | 65 | 1016.1 |
| 20260504012305 | 46 | 57 | 0.0 | 0.0 | 0.00 | 0.00 | 0.00 | 65 | 1016.0 |
| 20260504011802 | 46 | 57 | 0.0 | 0.0 | 0.00 | 0.00 | 0.00 | 65 | 1015.8 |
| 20260504011258 | 47 | 57 | 0.0 | 0.0 | 0.00 | 0.00 | 0.00 | 64 | 1015.7 |
| 20260504010754 | 47 | 58 | 0.0 | 0.0 | 0.00 | 0.00 | 0.00 | 62 | 1015.8 |
| 20260504010250 | 47 | 58 | 0.0 | 0.0 | 0.00 | 0.00 | 0.00 | 60 | 1015.7 |
| 20260504005747 | 48 | 58 | 0.0 | 0.0 | 0.00 | 0.00 | 0.00 | 59 | 1015.9 |
| 20260504005244 | 48 | 58 | 0.0 | 0.0 | 0.00 | 0.00 | 0.00 | 60 | 1015.7 |
| 20260504004741 | 48 | 58 | 0.0 | 0.0 | 0.00 | 0.00 | 0.00 | 58 | 1015.7 |
| 20260504004239 | 49 | 60 | 0.0 | 0.0 | 0.00 | 0.00 | 0.00 | 57 | 1015.6 |
| 20260504003735 | 49 | 60 | 0.0 | 0.0 | 0.00 | 0.00 | 0.00 | 55 | 1015.6 |
| 20260504003232 | 50 | 60 | 0.0 | 0.0 | 0.00 | 0.00 | 0.00 | 53 | 1015.8 |
| 20260504002728 | 50 | 60 | 0.0 | 0.0 | 0.00 | 0.00 | 0.00 | 52 | 1015.7 |
| 20260504002225 | 51 | 61 | 0.0 | 0.0 | 0.00 | 0.00 | 0.00 | 51 | 1015.4 |
| 20260504001723 | 52 | 68 | 0.0 | 0.0 | 0.00 | 0.00 | 0.00 | 49 | 1015.3 |
| 20260504001220 | 52 | 69 | 0.0 | 0.0 | 0.00 | 0.00 | 0.00 | 47 | 1015.4 |
| 20260504000717 | 53 | 69 | 0.0 | 0.0 | 0.00 | 0.00 | 0.00 | 45 | 1015.3 |
| 20260504000214 | 54 | 69 | 0.0 | 0.0 | 0.00 | 0.00 | 0.00 | 47 | 1015.1 |
| 20260503235712 | 55 | 72 | 0.0 | 0.0 | 0.00 | 0.00 | 0.00 | 42 | 1015.4 |
| 20260503235209 | 56 | 26 | 0.0 | 0.0 | 0.00 | 0.00 | 0.00 | 40 | 1015.3 |
| 20260503234706 | 56 | 27 | 0.0 | 0.0 | 0.00 | 0.00 | 0.00 | 38 | 1015.2 |
| 20260503234205 | 57 | 26 | 0.0 | 0.0 | 0.00 | 0.00 | 0.00 | 37 | 1015.2 |
| 20260503233701 | 57 | 26 | 0.0 | 0.0 | 0.00 | 0.00 | 0.00 | 36 | 1015.3 |
| 20260503233157 | 57 | 78 | 0.0 | 0.0 | 0.00 | 0.00 | 0.00 | 37 | 1014.8 |
| 20260503232654 | 58 | 101 | 0.0 | 0.0 | 0.00 | 0.00 | 0.00 | 38 | 1015.1 |
| 20260503232151 | 58 | 7 | 0.0 | 0.0 | 0.00 | 0.00 | 0.00 | 39 | 1015.0 |
| 20260503231649 | 58 | 102 | 0.0 | 0.0 | 0.00 | 0.00 | 0.00 | 37 | 1015.0 |
| 20260503231145 | 59 | 126 | 0.0 | 0.0 | 0.00 | 0.00 | 0.00 | 38 | 1014.7 |
| 20260503230642 | 59 | 83 | 0.0 | 0.0 | 0.00 | 0.00 | 0.00 | 36 | 1014.9 |
| 20260503230139 | 60 | 63 | 0.0 | 0.0 | 0.00 | 0.00 | 0.00 | 34 | 1014.8 |
| 20260503225637 | 60 | 344 | 0.9 | 0.9 | 0.00 | 0.00 | 0.00 | 33 | 1015.0 |
| 20260503225136 | 60 | 8 | 0.0 | 0.9 | 0.00 | 0.00 | 0.00 | 36 | 1014.9 |
| 20260503224634 | 60 | 280 | 0.9 | 0.9 | 0.00 | 0.00 | 0.00 | 34 | 1015.0 |
| 20260503224132 | 60 | 340 | 0.9 | 0.9 | 0.00 | 0.00 | 0.00 | 33 | 1014.9 |
| 20260503223630 | 60 | 359 | 0.0 | 0.9 | 0.00 | 0.00 | 0.00 | 33 | 1014.9 |
| 20260503223125 | 60 | 124 | 0.0 | 0.0 | 0.00 | 0.00 | 0.00 | 33 | 1015.1 |
| 20260503222623 | 61 | 307 | 0.0 | 0.9 | 0.00 | 0.00 | 0.00 | 31 | 1015.1 |
| 20260503222121 | 61 | 327 | 0.0 | 0.0 | 0.00 | 0.00 | 0.00 | 31 | 1014.9 |
| 20260503221619 | 62 | 75 | 0.9 | 0.9 | 0.00 | 0.00 | 0.00 | 31 | 1014.7 |
| 20260503221116 | 62 | 249 | 0.9 | 0.9 | 0.00 | 0.00 | 0.00 | 30 | 1015.0 |
| 20260503220613 | 62 | 254 | 0.9 | 1.7 | 0.00 | 0.00 | 0.00 | 32 | 1014.9 |
| 20260503220109 | 62 | 264 | 0.9 | 1.7 | 0.00 | 0.00 | 0.00 | 30 | 1015.1 |
| 20260503215606 | 62 | 307 | 1.7 | 1.7 | 0.00 | 0.00 | 0.00 | 32 | 1014.9 |
| 20260503215103 | 62 | 334 | 0.9 | 1.7 | 0.00 | 0.00 | 0.00 | 30 | 1015.0 |
| 20260503214601 | 61 | 334 | 0.9 | 0.9 | 0.00 | 0.00 | 0.00 | 31 | 1015.2 |
| 20260503214057 | 62 | 179 | 1.7 | 1.7 | 0.00 | 0.00 | 0.00 | 33 | 1015.2 |
| 20260503213556 | 62 | 300 | 0.9 | 1.7 | 0.00 | 0.00 | 0.00 | 31 | 1014.9 |
| 20260503213052 | 62 | 343 | 0.9 | 1.7 | 0.00 | 0.00 | 0.00 | 31 | 1015.0 |
| 20260503212550 | 62 | 304 | 1.7 | 2.6 | 0.00 | 0.00 | 0.00 | 33 | 1014.9 |
| 20260503212047 | 62 | 190 | 1.7 | 2.6 | 0.00 | 0.00 | 0.00 | 31 | 1014.9 |
| 20260503211544 | 62 | 329 | 1.7 | 2.6 | 0.00 | 0.00 | 0.00 | 31 | 1015.1 |
| 20260503211039 | 62 | 313 | 0.0 | 0.0 | 0.00 | 0.00 | 0.00 | 32 | 1015.0 |
| 20260503210537 | 62 | 229 | 0.9 | 1.7 | 0.00 | 0.00 | 0.00 | 32 | 1014.9 |
| 20260503210032 | 62 | 218 | 1.7 | 1.7 | 0.00 | 0.00 | 0.00 | 31 | 1015.0 |
| 20260503205529 | 63 | 35 | 0.9 | 0.9 | 0.00 | 0.00 | 0.00 | 29 | 1014.9 |
| 20260503205026 | 63 | 128 | 0.0 | 0.9 | 0.00 | 0.00 | 0.00 | 32 | 1015.0 |
| 20260503204523 | 63 | 279 | 0.9 | 1.7 | 0.00 | 0.00 | 0.00 | 30 | 1015.0 |
| 20260503204020 | 64 | 263 | 0.9 | 1.7 | 0.00 | 0.00 | 0.00 | 31 | 1015.2 |
| 20260503203517 | 63 | 353 | 1.7 | 2.6 | 0.00 | 0.00 | 0.00 | 31 | 1015.3 |
| 20260503203014 | 62 | 305 | 1.7 | 1.7 | 0.00 | 0.00 | 0.00 | 31 | 1015.3 |
| 20260503202512 | 62 | 154 | 1.7 | 1.7 | 0.00 | 0.00 | 0.00 | 35 | 1015.3 |
| 20260503202010 | 62 | 288 | 0.9 | 1.7 | 0.00 | 0.00 | 0.00 | 35 | 1015.5 |
| 20260503201508 | 61 | 277 | 0.9 | 1.7 | 0.00 | 0.00 | 0.00 | 33 | 1015.3 |
| 20260503201004 | 60 | 177 | 0.9 | 0.9 | 0.00 | 0.00 | 0.00 | 34 | 1015.4 |
| 20260503200500 | 62 | 318 | 0.9 | 0.9 | 0.00 | 0.00 | 0.00 | 34 | 1015.5 |
| 20260503195957 | 62 | 179 | 0.0 | 0.9 | 0.00 | 0.00 | 0.00 | 32 | 1015.5 |
| 20260503195455 | 62 | 306 | 0.9 | 1.7 | 0.00 | 0.00 | 0.00 | 32 | 1015.5 |
| 20260503194951 | 63 | 284 | 0.0 | 1.7 | 0.00 | 0.00 | 0.00 | 32 | 1015.8 |
| 20260503194449 | 63 | 298 | 0.9 | 0.9 | 0.00 | 0.00 | 0.00 | 33 | 1015.7 |
| 20260503193943 | 63 | 304 | 1.7 | 1.7 | 0.00 | 0.00 | 0.00 | 34 | 1015.8 |
| 20260503193439 | 63 | 239 | 3.5 | 5.2 | 0.00 | 0.00 | 0.00 | 34 | 1015.9 |
| 20260503192935 | 62 | 161 | 1.7 | 1.7 | 0.00 | 0.00 | 0.00 | 34 | 1015.8 |
| 20260503192432 | 62 | 346 | 1.7 | 1.7 | 0.00 | 0.00 | 0.00 | 34 | 1016.1 |
| 20260503191927 | 63 | 338 | 3.5 | 5.2 | 0.00 | 0.00 | 0.00 | 32 | 1016.2 |
| 20260503191425 | 63 | 316 | 4.3 | 6.1 | 0.00 | 0.00 | 0.00 | 32 | 1016.2 |
| 20260503190921 | 63 | 244 | 1.7 | 1.7 | 0.00 | 0.00 | 0.00 | 32 | 1016.3 |
| 20260503190419 | 62 | 336 | 2.6 | 3.5 | 0.00 | 0.00 | 0.00 | 33 | 1016.3 |
| 20260503185915 | 62 | 326 | 1.7 | 2.6 | 0.00 | 0.00 | 0.00 | 32 | 1016.4 |
| 20260503185412 | 62 | 332 | 0.9 | 0.9 | 0.00 | 0.00 | 0.00 | 33 | 1016.2 |
| 20260503184911 | 62 | 308 | 1.7 | 2.6 | 0.00 | 0.00 | 0.00 | 33 | 1016.3 |
| 20260503184408 | 61 | 298 | 2.6 | 2.6 | 0.00 | 0.00 | 0.00 | 33 | 1016.4 |
| 20260503183904 | 62 | 286 | 2.6 | 2.6 | 0.00 | 0.00 | 0.00 | 33 | 1016.5 |
| 20260503183401 | 61 | 272 | 1.7 | 1.7 | 0.00 | 0.00 | 0.00 | 35 | 1016.5 |
| 20260503182858 | 62 | 331 | 2.6 | 2.6 | 0.00 | 0.00 | 0.00 | 31 | 1016.9 |
| 20260503182357 | 62 | 354 | 2.6 | 2.6 | 0.00 | 0.00 | 0.00 | 32 | 1016.9 |
| 20260503181853 | 60 | 29 | 1.7 | 1.7 | 0.00 | 0.00 | 0.00 | 36 | 1016.7 |
| 20260503181351 | 60 | 227 | 2.6 | 2.6 | 0.00 | 0.00 | 0.00 | 34 | 1016.8 |
| 20260503180847 | 60 | 289 | 0.9 | 1.7 | 0.00 | 0.00 | 0.00 | 34 | 1016.8 |
| 20260503180345 | 60 | 9 | 0.9 | 1.7 | 0.00 | 0.00 | 0.00 | 35 | 1016.7 |
| 20260503175841 | 60 | 308 | 1.7 | 2.6 | 0.00 | 0.00 | 0.00 | 35 | 1016.6 |
| 20260503175339 | 60 | 299 | 0.9 | 0.9 | 0.00 | 0.00 | 0.00 | 37 | 1017.0 |
| 20260503174835 | 60 | 284 | 0.9 | 0.9 | 0.00 | 0.00 | 0.00 | 37 | 1017.1 |
| 20260503174334 | 60 | 265 | 1.7 | 2.6 | 0.00 | 0.00 | 0.00 | 36 | 1016.9 |
| 20260503173834 | 61 | 323 | 3.5 | 5.2 | 0.00 | 0.00 | 0.00 | 34 | 1017.1 |
| 20260503173330 | 60 | 356 | 0.9 | 0.9 | 0.00 | 0.00 | 0.00 | 35 | 1016.9 |
| 20260503172827 | 59 | 346 | 1.7 | 3.5 | 0.00 | 0.00 | 0.00 | 34 | 1017.0 |
| 20260503172325 | 60 | 271 | 1.7 | 2.6 | 0.00 | 0.00 | 0.00 | 36 | 1016.9 |
| 20260503171820 | 59 | 326 | 3.5 | 5.2 | 0.00 | 0.00 | 0.00 | 36 | 1017.1 |
| 20260503171318 | 59 | 230 | 2.6 | 2.6 | 0.00 | 0.00 | 0.00 | 39 | 1017.1 |
| 20260503170815 | 58 | 324 | 0.9 | 0.9 | 0.00 | 0.00 | 0.00 | 40 | 1017.1 |
| 20260503170311 | 59 | 355 | 1.7 | 2.6 | 0.00 | 0.00 | 0.00 | 35 | 1017.1 |
| 20260503150704 | 55 | 322 | 0.9 | 1.7 | 0.00 | 0.00 | 0.00 | 38 | 1017.8 |
| 20260503150200 | 56 | 294 | 1.7 | 1.7 | 0.00 | 0.00 | 0.00 | 35 | 1017.9 |
| 20260503140124 | 52 | 43 | 0.9 | 1.7 | 0.00 | 0.00 | 0.00 | 42 | 1017.9 |
| 20260503131053 | 50 | 323 | 1.7 | 1.7 | 0.00 | 0.00 | 0.00 | 48 | 1018.2 |
| 20260503130550 | 50 | 307 | 0.9 | 1.7 | 0.00 | 0.00 | 0.00 | 50 | 1018.3 |
| 20260503110441 | 42 | 272 | 0.9 | 0.9 | 0.00 | 0.00 | 0.00 | 69 | 1017.0 |